Disclaimer

Please do not use the information listed here in-flight or in-navigation, as they are not provided to us by the airports but are provided by volunteers, so they might be outdated.

Search


Regions


Airport information page

Radio informations:
Tower (TWR) - 124.6 MHz

Airport informations:
Latitude: 36° 39' 48.00" N
Longitude: 051° 27' 53.00" E
Elevation: -61 feet - -19 meters
Operating hours: Remarks
Operating agency: Civil government, landing fees and diplomatic clearance may be required
Timezone: UTC+3:30
Fuel: N/A

Runway information:
10/28 - 6182 x 115 feet< - >1884 x 35 meters

Recent METARs:
OINN 152300Z 00000KT CAVOK 08/02 Q1010
OINN 152300Z 00000KT CAVOK 08/02 Q1010
OINN 160000Z 25004KT CAVOK 08/02 Q1011

Airport on the map: